EDT,Max TemperatureF,Mean TemperatureF,Min TemperatureF,Max Dew PointF,MeanDew PointF,Min DewpointF,Max Humidity, Mean Humidity, Min Humidity, Max Sea Level PressureIn, Mean Sea Level PressureIn, Min Sea Level PressureIn, Max VisibilityMiles, Mean VisibilityMiles, Min VisibilityMiles, Max Wind SpeedMPH, Mean Wind SpeedMPH, Max Gust SpeedMPH,PrecipitationIn, CloudCover, Events, WindDirDegrees
2013-7-1,73,72,71,70,69,68,94,89,88,30.12,30.03,29.97,10,5,0,13,7,17,0.00,8,Fog-Rain-Thunderstorm,190
2013-7-2,80,76,71,72,69,68,94,88,74,30.23,30.17,30.12,10,7,0,12,8,17,0.00,8,Fog,200
2013-7-3,82,76,69,72,69,66,94,85,70,30.29,30.25,30.22,10,10,6,10,5,16,0.00,4,,217
2013-7-4,86,78,71,73,71,70,94,83,62,30.29,30.25,30.20,10,7,2,9,4,17,0.00,5,,227
2013-7-5,89,80,71,73,70,68,88,79,55,30.25,30.21,30.14,10,10,7,9,3,17,0.00,1,,234
2013-7-6,87,79,71,73,71,68,88,76,58,30.17,30.13,30.07,10,10,10,8,3,,0.00,1,,263
2013-7-7,89,80,71,77,71,68,100,80,55,30.10,30.05,29.97,10,9,5,13,1,16,0.00,1,,216
2013-7-8,86,78,69,72,67,63,89,74,51,30.08,30.03,29.99,10,10,10,9,4,,0.00,1,,265
2013-7-9,82,74,66,70,67,63,94,83,62,30.12,30.08,30.06,10,8,2,12,3,18,0.00,2,Fog-Rain-Thunderstorm,146
2013-7-10,82,76,71,73,70,68,94,86,74,30.07,29.96,29.86,10,4,0,14,4,21,0.00,5,Fog-Rain-Thunderstorm,183
2013-7-11,80,73,66,70,68,61,94,84,61,29.98,29.89,29.85,10,7,1,7,3,,0.00,4,Fog-Rain-Thunderstorm,258
2013-7-12,77,70,62,64,59,54,83,70,56,30.19,30.07,29.97,10,10,4,14,8,21,0.00,3,,51
2013-7-13,75,68,62,70,63,57,88,83,77,30.35,30.27,30.19,10,7,1,10,7,,0.00,8,Rain,80
2013-7-14,86,78,71,73,71,70,94,84,62,30.37,30.33,30.28,10,6,0,9,1,17,0.00,6,Fog,306
2013-7-15,87,79,71,73,70,66,94,78,55,30.28,30.25,30.20,10,10,10,14,2,18,0.00,0,,343
2013-7-16,87,78,69,70,66,63,78,69,46,30.24,30.21,30.19,10,10,10,13,6,20,0.00,0,,353
2013-7-17,89,79,69,72,68,63,83,73,52,30.25,30.19,30.11,10,10,10,7,4,,0.00,1,,319
2013-7-18,91,82,73,75,70,66,89,72,52,30.12,30.07,30.02,10,10,10,9,1,,0.00,1,,294
2013-7-19,91,82,73,75,72,70,89,75,55,30.02,29.95,29.84,10,9,5,10,2,18,0.00,1,,242
2013-7-20,87,79,71,73,71,64,83,75,58,29.89,29.83,29.78,10,9,1,18,4,30,0.00,1,Rain-Thunderstorm,260
2013-7-21,82,74,66,66,63,59,88,72,51,30.02,29.96,29.90,10,10,10,8,4,,0.00,4,,22
2013-7-22,80,72,64,72,67,61,100,86,74,30.02,29.97,29.88,10,8,2,10,2,,0.03,5,,137
2013-7-23,84,78,71,72,70,66,94,88,66,29.87,29.72,29.62,10,6,1,12,6,23,1.05,7,Rain-Thunderstorm,174
2013-7-24,78,70,60,70,63,50,94,78,61,29.98,29.77,29.66,10,6,0,16,4,20,0.00,6,Fog,341
2013-7-25,62,60,57,54,51,45,82,73,63,30.11,30.04,29.98,10,10,10,14,11,20,0.04,7,,32
2013-7-26,75,67,59,64,57,54,88,82,65,30.08,30.05,30.02,10,10,6,14,8,18,0.09,5,Rain,13
2013-7-27,78,70,62,63,61,57,94,82,57,30.11,30.07,30.03,10,7,0,12,2,,0.00,3,Fog,187
2013-7-28,75,68,62,66,63,59,94,84,69,30.05,30.02,29.99,10,6,0,10,2,,0.00,6,Fog,144
2013-7-29,82,72,62,66,62,54,94,76,48,30.12,30.05,30.01,10,8,0,7,2,,0.00,4,Fog,273
2013-7-30,75,66,57,57,54,50,82,70,53,30.19,30.15,30.12,10,10,9,12,5,,0.00,1,,340
2013-7-31,77,66,55,61,56,52,88,73,44,30.19,30.14,30.09,10,10,10,9,2,,0.00,1,,324